sat.trackr.live / text

‹ back to catalog

STARLINK-1337

NORAD 45582 · 2020-025BD

PAYLOAD ACTIVE UNKNOWN

§ Identity

Operator
Country
US
Launch date
2020-04-22
Launch site
AFETR
Launch vehicle
Mass (kg)
RCS (m²)

Purposes: comms

External: N2YO · Heavens-Above · Gunter

§ Orbital elements

Epoch: 2026-09-20T06:00:02.000160Z

Period
90.01 min
Inclination
53.0325°
Eccentricity
0.0004233
Mean motion
15.99829771 rev/d
Perigee alt
272.1 km
Apogee alt
277.7 km
Semi-major
6,653.0 km
B*
5.3921e-4
RAAN
170.8101°
Arg perigee
126.7424°
Mean anomaly
39.9074°
Rev number
603

§ Raw data

STARLINK-13371 45582U 20025BD  26263.25002315  .00277669  43367-4  53921-3 0  99972 45582  53.0325 170.8101 0004233 126.7424  39.9074 15.99829771  6039

JSON: /api/v1/satellites/45582 · /tle

For live sub-satellite position, see the globe view (requires WebGL).

§ Visibility from observer

Set your observer location to see the next 7 days of passes ≥ 10°. The values pass through the URL so the page stays shareable.

No JS? Fill the form by hand. The geolocation button needs JavaScript.